| time (UTC) | temp F | wind direction | speed MPH | gust MPH | rain 1hr in | rain 24hr in | rain mn in | humidity % | barometer mb |
| 20260510185004 | 54 | 133 | 5.0 | 9.0 | 0.00 | 0.12 | 0.01 | 54 | 996.6 |
| 20260510184004 | 54 | 198 | 5.0 | 10.0 | 0.00 | 0.12 | 0.01 | 53 | 996.6 |
| 20260510181005 | 55 | 190 | 5.0 | 15.0 | 0.00 | 0.12 | 0.01 | 57 | 996.4 |
| 20260510180005 | 56 | 143 | 6.0 | 13.0 | 0.00 | 0.12 | 0.01 | 54 | 996.2 |
| 20260510175007 | 54 | 246 | 3.0 | 10.0 | 0.00 | 0.12 | 0.01 | 57 | 996.5 |
| 20260510174006 | 58 | 168 | 2.0 | 9.0 | 0.00 | 0.12 | 0.01 | 34 | 996.2 |
| 20260510173005 | 57 | 249 | 2.0 | 9.0 | 0.00 | 0.12 | 0.01 | 37 | 995.8 |
| 20260510171004 | 57 | 244 | 3.0 | 8.0 | 0.00 | 0.12 | 0.01 | 36 | 996.0 |
| 20260510170004 | 56 | 299 | 2.0 | 10.0 | 0.00 | 0.12 | 0.01 | 39 | 995.8 |
| 20260510165004 | 56 | 241 | 2.0 | 9.0 | 0.00 | 0.12 | 0.01 | 38 | 995.9 |
| 20260510164004 | 56 | 267 | 3.0 | 10.0 | 0.00 | 0.12 | 0.01 | 38 | 995.9 |
| 20260510163004 | 56 | 285 | 2.0 | 10.0 | 0.00 | 0.12 | 0.01 | 39 | 995.5 |
| 20260510162004 | 55 | 293 | 1.0 | 8.0 | 0.00 | 0.12 | 0.01 | 40 | 995.8 |
| 20260510161010 | 55 | 278 | 2.0 | 12.0 | 0.00 | 0.12 | 0.01 | 39 | 995.8 |
| 20260510160004 | 55 | 238 | 5.0 | 10.0 | 0.00 | 0.12 | 0.01 | 42 | 995.9 |
| 20260510155004 | 54 | 215 | 6.0 | 10.0 | 0.00 | 0.12 | 0.01 | 43 | 995.8 |
| 20260510154004 | 53 | 275 | 3.0 | 10.0 | 0.00 | 0.12 | 0.01 | 42 | 995.9 |
| 20260510153004 | 54 | 261 | 3.0 | 9.0 | 0.00 | 0.12 | 0.01 | 41 | 995.9 |
| 20260510152004 | 52 | 272 | 3.0 | 12.0 | 0.00 | 0.12 | 0.01 | 40 | 995.7 |
| 20260510151006 | 53 | 260 | 2.0 | 8.0 | 0.00 | 0.12 | 0.01 | 47 | 995.7 |
| 20260510150006 | 52 | 230 | 5.0 | 9.0 | 0.00 | 0.12 | 0.01 | 46 | 995.7 |
| 20260510145004 | 51 | 248 | 3.0 | 10.0 | 0.00 | 0.12 | 0.01 | 48 | 995.7 |
| 20260510144004 | 51 | 266 | 3.0 | 10.0 | 0.00 | 0.12 | 0.01 | 51 | 995.5 |
| 20260510143004 | 50 | 267 | 3.0 | 10.0 | 0.00 | 0.12 | 0.01 | 50 | 995.3 |
| 20260510142004 | 50 | 229 | 3.0 | 13.0 | 0.00 | 0.12 | 0.01 | 50 | 995.2 |
| 20260510141004 | 49 | 245 | 4.0 | 10.0 | 0.00 | 0.12 | 0.01 | 50 | 994.8 |
| 20260510140004 | 49 | 236 | 3.0 | 10.0 | 0.00 | 0.12 | 0.01 | 52 | 995.0 |
| 20260510135004 | 49 | 225 | 5.0 | 9.0 | 0.00 | 0.12 | 0.01 | 55 | 994.9 |
| 20260510134003 | 49 | 259 | 2.0 | 9.0 | 0.00 | 0.12 | 0.01 | 55 | 994.8 |
| 20260510133004 | 48 | 217 | 2.0 | 10.0 | 0.00 | 0.12 | 0.01 | 58 | 994.4 |
| 20260510132004 | 49 | 249 | 1.0 | 7.0 | 0.00 | 0.12 | 0.01 | 60 | 994.2 |
| 20260510131004 | 48 | 244 | 1.0 | 7.0 | 0.00 | 0.12 | 0.01 | 61 | 994.1 |
| 20260510125005 | 48 | 305 | 2.0 | 8.0 | 0.00 | 0.12 | 0.01 | 61 | 993.9 |
| 20260510124005 | 48 | 247 | 2.0 | 7.0 | 0.00 | 0.12 | 0.01 | 61 | 993.9 |
| 20260510123004 | 47 | 244 | 3.0 | 8.0 | 0.00 | 0.12 | 0.01 | 64 | 994.1 |
| 20260510122005 | 47 | 253 | 2.0 | 7.0 | 0.00 | 0.12 | 0.01 | 64 | 994.0 |
| 20260510121004 | 46 | 265 | 3.0 | 7.0 | 0.00 | 0.12 | 0.01 | 67 | 993.7 |
| 20260510115005 | 46 | 284 | 0.0 | 7.0 | 0.00 | 0.12 | 0.01 | 71 | 993.4 |
| 20260510114004 | 46 | 283 | 0.0 | 5.0 | 0.00 | 0.12 | 0.01 | 71 | 993.2 |
| 20260510113005 | 46 | 277 | 0.0 | 5.0 | 0.00 | 0.12 | 0.01 | 72 | 992.8 |
| 20260510112003 | 46 | 270 | 2.0 | 3.0 | 0.00 | 0.12 | 0.01 | 71 | 992.7 |
| 20260510111003 | 45 | 272 | 1.0 | 5.0 | 0.00 | 0.12 | 0.01 | 72 | 992.7 |
| 20260510110005 | 45 | 264 | 1.0 | 3.0 | 0.00 | 0.12 | 0.01 | 72 | 992.5 |
| 20260510105004 | 45 | 282 | 1.0 | 5.0 | 0.00 | 0.12 | 0.01 | 73 | 992.3 |
| 20260510104004 | 45 | 252 | 1.0 | 3.0 | 0.00 | 0.12 | 0.01 | 72 | 992.1 |
| 20260510103004 | 45 | 261 | 1.0 | 2.0 | 0.00 | 0.12 | 0.01 | 74 | 991.8 |
| 20260510102004 | 45 | 284 | 0.0 | 3.0 | 0.00 | 0.12 | 0.01 | 74 | 991.8 |
| 20260510101004 | 45 | 265 | 2.0 | 5.0 | 0.00 | 0.12 | 0.01 | 73 | 991.3 |
| 20260510100004 | 45 | 285 | 0.0 | 2.0 | 0.00 | 0.12 | 0.01 | 73 | 991.2 |
| 20260510095004 | 45 | 272 | 1.0 | 3.0 | 0.00 | 0.12 | 0.01 | 72 | 991.1 |
| 20260510094004 | 46 | 245 | 2.0 | 6.0 | 0.00 | 0.12 | 0.01 | 73 | 990.8 |
| 20260510093005 | 46 | 254 | 1.0 | 5.0 | 0.00 | 0.12 | 0.01 | 77 | 990.8 |
| 20260510092005 | 46 | 283 | 0.0 | 2.0 | 0.00 | 0.12 | 0.01 | 81 | 990.8 |
| 20260510091004 | 45 | 289 | 1.0 | 1.0 | 0.00 | 0.12 | 0.01 | 85 | 990.7 |
| 20260510090003 | 45 | 310 | 1.0 | 1.0 | 0.00 | 0.12 | 0.01 | 87 | 990.5 |
| 20260510085005 | 45 | 285 | 0.0 | 0.0 | 0.00 | 0.12 | 0.01 | 86 | 990.3 |
| 20260510084004 | 46 | 286 | 0.0 | 0.0 | 0.00 | 0.12 | 0.01 | 83 | 990.1 |
| 20260510083004 | 47 | 286 | 0.0 | 2.0 | 0.00 | 0.12 | 0.01 | 79 | 990.0 |
| 20260510082004 | 48 | 292 | 0.0 | 2.0 | 0.01 | 0.12 | 0.01 | 77 | 990.0 |
| 20260510081004 | 48 | 283 | 1.0 | 5.0 | 0.01 | 0.12 | 0.01 | 72 | 990.4 |
| 20260510080004 | 48 | 287 | 0.0 | 1.0 | 0.01 | 0.12 | 0.01 | 77 | 989.7 |
| 20260510074004 | 49 | 278 | 1.0 | 2.0 | 0.01 | 0.12 | 0.01 | 81 | 989.8 |
| 20260510073004 | 49 | 293 | 0.0 | 5.0 | 0.01 | 0.12 | 0.01 | 82 | 989.0 |
| 20260510070005 | 50 | 285 | 0.0 | 3.0 | 0.00 | 0.11 | 0.00 | 87 | 989.0 |
| 20260510064005 | 50 | 276 | 0.0 | 1.0 | 0.00 | 0.11 | 0.00 | 92 | 988.6 |
| 20260510063006 | 50 | 276 | 0.0 | 1.0 | 0.00 | 0.11 | 0.00 | 94 | 988.8 |
| 20260510062004 | 50 | 276 | 0.0 | 0.0 | 0.00 | 0.11 | 0.00 | 95 | 988.6 |
| 20260510061004 | 50 | 276 | 0.0 | 1.0 | 0.00 | 0.11 | 0.00 | 96 | 988.4 |
| 20260510060004 | 51 | 276 | 0.0 | 1.0 | 0.00 | 0.11 | 0.00 | 96 | 988.3 |
| 20260510055005 | 51 | 276 | 0.0 | 2.0 | 0.00 | 0.11 | 0.00 | 97 | 988.5 |
| 20260510052003 | 51 | 272 | 1.0 | 2.0 | 0.00 | 0.11 | 0.00 | 96 | 988.1 |
| 20260510051004 | 51 | 263 | 2.0 | 5.0 | 0.00 | 0.11 | 0.00 | 95 | 987.9 |
| 20260510050005 | 51 | 282 | 1.0 | 2.0 | 0.00 | 0.11 | 0.00 | 94 | 987.7 |
| 20260510045004 | 52 | 263 | 1.0 | 6.0 | 0.00 | 0.11 | 0.00 | 94 | 987.4 |
| 20260510044004 | 51 | 215 | 3.0 | 6.0 | 0.00 | 0.11 | 0.00 | 94 | 987.7 |
| 20260510042005 | 51 | 268 | 1.0 | 2.0 | 0.00 | 0.11 | 0.00 | 94 | 987.1 |
| 20260510041004 | 51 | 289 | 0.0 | 0.0 | 0.00 | 0.11 | 0.00 | 93 | 986.8 |
| 20260510040004 | 52 | 287 | 0.0 | 2.0 | 0.00 | 0.11 | 0.00 | 93 | 986.4 |
| 20260510035005 | 52 | 260 | 1.0 | 7.0 | 0.00 | 0.11 | 0.11 | 92 | 986.5 |
| 20260510033004 | 52 | 204 | 2.0 | 5.0 | 0.00 | 0.11 | 0.11 | 92 | 986.5 |
| 20260510032004 | 52 | 238 | 2.0 | 6.0 | 0.00 | 0.11 | 0.11 | 92 | 986.9 |
| 20260510030004 | 52 | 247 | 2.0 | 5.0 | 0.00 | 0.11 | 0.11 | 92 | 986.6 |
| 20260510025004 | 52 | 261 | 2.0 | 6.0 | 0.00 | 0.11 | 0.11 | 92 | 986.5 |
| 20260510024005 | 52 | 250 | 3.0 | 7.0 | 0.00 | 0.11 | 0.11 | 92 | 986.5 |
| 20260510023004 | 52 | 239 | 2.0 | 8.0 | 0.00 | 0.11 | 0.11 | 92 | 986.4 |
| 20260510022004 | 52 | 250 | 1.0 | 3.0 | 0.00 | 0.11 | 0.11 | 92 | 986.1 |
| 20260510021005 | 52 | 259 | 2.0 | 5.0 | 0.00 | 0.11 | 0.11 | 92 | 986.1 |
| 20260510020005 | 52 | 251 | 1.0 | 5.0 | 0.00 | 0.11 | 0.11 | 92 | 986.1 |
| 20260510015004 | 52 | 147 | 2.0 | 6.0 | 0.00 | 0.11 | 0.11 | 92 | 986.1 |
| 20260510014005 | 52 | 182 | 2.0 | 6.0 | 0.00 | 0.11 | 0.11 | 91 | 986.0 |
| 20260510012004 | 52 | 182 | 3.0 | 9.0 | 0.00 | 0.11 | 0.11 | 91 | 985.8 |
| 20260510011004 | 52 | 228 | 3.0 | 9.0 | 0.00 | 0.11 | 0.11 | 92 | 985.6 |
| 20260510010005 | 52 | 237 | 2.0 | 10.0 | 0.00 | 0.11 | 0.11 | 93 | 985.7 |
| 20260510005004 | 52 | 265 | 1.0 | 6.0 | 0.00 | 0.11 | 0.11 | 93 | 985.4 |
| 20260510004004 | 52 | 246 | 1.0 | 3.0 | 0.00 | 0.11 | 0.11 | 93 | 985.2 |
| 20260510003004 | 52 | 190 | 2.0 | 5.0 | 0.01 | 0.11 | 0.11 | 93 | 985.0 |
| 20260510002004 | 52 | 237 | 2.0 | 6.0 | 0.03 | 0.11 | 0.11 | 93 | 985.0 |
| 20260510001004 | 52 | 145 | 2.0 | 5.0 | 0.06 | 0.11 | 0.11 | 94 | 985.0 |
| 20260510000004 | 51 | 280 | 2.0 | 6.0 | 0.08 | 0.11 | 0.11 | 94 | 985.2 |
| 20260509235004 | 51 | 85 | 2.0 | 6.0 | 0.11 | 0.11 | 0.11 | 95 | 984.9 |
| 20260509234004 | 51 | 304 | 1.0 | 7.0 | 0.11 | 0.11 | 0.11 | 94 | 985.0 |
| 20260509233004 | 51 | 240 | 4.0 | 12.0 | 0.10 | 0.10 | 0.10 | 93 | 985.2 |
| 20260509232004 | 51 | 238 | 6.0 | 12.0 | 0.08 | 0.08 | 0.08 | 93 | 985.5 |
| 20260509231004 | 52 | 227 | 7.0 | 16.0 | 0.05 | 0.05 | 0.05 | 92 | 985.9 |
| 20260509230004 | 53 | 197 | 7.0 | 22.0 | 0.03 | 0.03 | 0.03 | 90 | 986.1 |
| 20260509225005 | 59 | 204 | 6.0 | 15.0 | 0.00 | 0.00 | 0.00 | 79 | 985.1 |
| 20260509224004 | 61 | 235 | 2.0 | 9.0 | 0.00 | 0.00 | 0.00 | 72 | 983.5 |
| 20260509223005 | 62 | 260 | 1.0 | 3.0 | 0.00 | 0.00 | 0.00 | 70 | 983.3 |
| 20260509222006 | 62 | 149 | 2.0 | 5.0 | 0.00 | 0.00 | 0.00 | 68 | 982.9 |
| 20260509221004 | 62 | 292 | 1.0 | 3.0 | 0.00 | 0.00 | 0.00 | 67 | 983.0 |
| 20260509220004 | 62 | 273 | 1.0 | 3.0 | 0.00 | 0.00 | 0.00 | 67 | 983.1 |
| 20260509215004 | 63 | 227 | 2.0 | 6.0 | 0.00 | 0.00 | 0.00 | 66 | 983.3 |
| 20260509214004 | 63 | 261 | 1.0 | 7.0 | 0.00 | 0.00 | 0.00 | 66 | 983.3 |
| 20260509213005 | 63 | 272 | 2.0 | 6.0 | 0.00 | 0.00 | 0.00 | 66 | 983.2 |
| 20260509212003 | 62 | 195 | 2.0 | 5.0 | 0.00 | 0.00 | 0.00 | 67 | 983.3 |
| 20260509211006 | 62 | 270 | 1.0 | 9.0 | 0.00 | 0.00 | 0.00 | 68 | 983.5 |
| 20260509210004 | 62 | 245 | 2.0 | 9.0 | 0.00 | 0.00 | 0.00 | 67 | 983.7 |
| 20260509205004 | 63 | 279 | 1.0 | 7.0 | 0.00 | 0.00 | 0.00 | 68 | 983.6 |
| 20260509204004 | 63 | 133 | 3.0 | 8.0 | 0.00 | 0.00 | 0.00 | 67 | 983.8 |
| 20260509202003 | 63 | 237 | 3.0 | 9.0 | 0.00 | 0.00 | 0.00 | 66 | 983.9 |
| 20260509201003 | 64 | 166 | 3.0 | 12.0 | 0.00 | 0.00 | 0.00 | 65 | 983.8 |
| 20260509200005 | 64 | 208 | 5.0 | 12.0 | 0.00 | 0.00 | 0.00 | 64 | 984.1 |
| 20260509195009 | 64 | 216 | 3.0 | 9.0 | 0.00 | 0.00 | 0.00 | 63 | 984.2 |
| 20260509194009 | 64 | 224 | 5.0 | 12.0 | 0.00 | 0.00 | 0.00 | 62 | 984.1 |
| 20260509193009 | 64 | 143 | 4.0 | 13.0 | 0.00 | 0.00 | 0.00 | 63 | 984.1 |
| 20260509190005 | 63 | 117 | 5.0 | 12.0 | 0.00 | 0.00 | 0.00 | 66 | 984.9 |